AirNav   ATP
 
 303 users online  

38PA Aerequus Airport
Solebury, Pennsylvania, USA

GOING TO SOLEBURY?


FAA INFORMATION EFFECTIVE 14 SEPTEMBER 2017

Location

FAA Identifier: 38PA
Lat/Long: 40-23-25.7600N / 075-00-54.3000W
40-23.429333N / 075-00.905000W
40.3904889 / -75.0150833
(estimated)
Elevation: 390 ft. / 119 m (estimated)
Variation: 12W (1985)
From city: 1 mile NW of SOLEBURY, PA
Time zone: UTC -4 (UTC -5 during Standard Time)
Zip code: 18938

Airport Operations

Airport use: Private use. Permission required prior to landing
Activation date: 05/1965
Control tower: no
ARTCC: NEW YORK CENTER
FSS: WILLIAMSPORT FLIGHT SERVICE STATION
Attendance: UNATNDD
Wind indicator: yes
Segmented circle: no

Airport Communications

WX ASOS at DYL (6 nm SW): 118.875 (215-345-0392)
WX ASOS at TTN (11 nm SE): 126.77 (609-538-8690)
WX AWOS-3 at CKZ (13 nm W): 126.325 (215-257-7291)
WX AWOS-3 at UKT (17 nm W): 119.475 (215-538-7610)
WX ASOS at PNE (19 nm S): PHONE 215-677-0146
WX AWOS-3 at LOM (19 nm SW): 118.925 (215-646-1068)

Nearby radio navigation aids

VOR radial/distance  VOR name  Freq  Var
ARDr339/9.6YARDLEY VOR/DME108.2010W
SBJr237/17.0SOLBERG VOR/DME112.9010W
PNEr009/(18.5)NORTH PHILADELPHIA VOR112.0010W
BWZr211/26.0BROADWAY VOR/DME114.2011W
RBVr305/26.3ROBBINSVILLE VORTAC113.8010W
PTWr077/26.9POTTSTOWN VORTAC116.5009W
FJCr145/28.4ALLENTOWN VORTAC117.5010W
GXUr332/29.8MC GUIRE VORTAC110.6012W
ETXr120/32.6EAST TEXAS VOR/DME110.2009W
STWr201/36.9STILLWATER VOR/DME109.6011W
COLr288/39.4COLTS NECK VOR/DME115.4011W

 
NDB name  Hdg/Dist  Freq  Var  ID
AMBLER050/20.127512WING .. -. --.
CHATHAM245/34.025413WCAT -.-. .- -
LAKEHURST315/37.439611WNEL -. . .-..

Airport Services

Airframe service: NONE
Powerplant service: NONE

Runway Information

Runway 5/23

Dimensions: 1400 x 100 ft. / 427 x 30 m
Surface: turf
RUNWAY 5  RUNWAY 23
Traffic pattern: leftleft
Obstructions: treesnone

Airport Ownership and Management from official FAA records

Ownership: Privately-owned
Owner: ROBERT N. DUSEK
6616 PAXON RD. BOX 149
SOLEBURY, PA 18963
Phone 215-297-5430

Instrument Procedures

There are no published instrument procedures at 38PA.

Some nearby airports with instrument procedures:

KDYL - Doylestown Airport (6 nm SW)
N40 - Sky Manor Airport (11 nm N)
KTTN - Trenton Mercer Airport (11 nm SE)
N85 - Alexandria Airport (12 nm N)
KCKZ - Pennridge Airport (13 nm W)
39N - Princeton Airport (16 nm E)
KUKT - Quakertown Airport (17 nm W)
N51 - Solberg-Hunterdon Airport (17 nm NE)
KPNE - Northeast Philadelphia Airport (19 nm S)
KLOM - Wings Field Airport (19 nm SW)
 
Loc | Ops | Rwys | IFR | FBO | Links
Com | Nav | Svcs | Stats | Notes


 
Area around 38PA (Aerequus Airport)
 
Road maps at: MapQuest Bing Google
 
Aerial photo
No photo
 
Sectional chart

 
Airport distance calculator
Flying to Aerequus Airport? Find the distance to fly.

From to 38PA

Sunrise and sunset
Times for 21-Sep-2017
 Local
(UTC-4)
 Zulu
(UTC)
Morning civil twilight06:2010:20
Sunrise06:4810:48
Sunset18:5922:59
Evening civil twilight19:2623:26

Current date and time
Zulu (UTC)  21-Sep-2017 09:45:37
Local (UTC-4)  21-Sep-2017 05:45:37
 
METAR
KDYL 
6nm SW 
210854Z AUTO 00000KT 10SM CLR 18/17 A3000 RMK AO2 SLP152 T01830167 53006
KTTN 
11nm SE 
ASOS 133.70 609-538-8690
210853Z AUTO 32004KT 10SM CLR 19/17 A2998 RMK AO2 SLP145 T01890172 53006
KCKZ 
13nm W 
210935Z AUTO 00000KT 10SM OVC060 18/18 A3004 RMK AO2
KUKT 
17nm W 
210935Z AUTO 00000KT 10SM OVC060 17/16 A3004 RMK AO1
KPNE 
18nm S 
210854Z AUTO 32006KT 10SM CLR 22/17 A3000 RMK AO2 SLP157 T02170172 53005
KLOM 
19nm SW 
210935Z AUTO 00000KT 10SM OVC055 16/16 A3003 RMK AO1
TAF
KTTN 
11nm SE 
210532Z 2106/2206 34006KT P6SM SCT250 FM211500 02008KT P6SM SCT250 FM212200 35004KT P6SM BKN250
KPNE 
18nm S 
210532Z 2106/2206 34006KT P6SM SCT250 FM211500 02008KT P6SM SCT250 FM212200 35004KT P6SM BKN250
NOTAMs
Click for the latest NOTAMs
NOTAMs are issued by the DoD/FAA and will open in a separate window not controlled by AirNav.

 

 
 

Would you like to see your business listed on this page?

 If your business provides an interesting product or service to pilots, flight crews, aircraft, or users of the Aerequus Airport, you should consider listing it here.  To start the listing process, click on the button below
 
Add a business
 

Other Pages about Aerequus Airport

Update a link
 
Copyright © AirNav, LLC. All rights reserved. Privacy Policy  Contact